Temp
-4 -4 -5 -5 -5 -5 -5 -6 -6 -6 -7 -6 -6 -7 -7 -7 -7 -7 -7 -7 -7 -7 -8 -8 -9 -8 -8 -8 -8 -8 -8 -7 -7 -7 -7 -8 -8 -7 -7 -7 -7 -8 -8
-5 -5 -5 -5 -5 -5 -6 -6 -6 -6 -7 -7 -7 -7 -7 -7 -7 -7 -7 -7 -7 -7 -8 -8 -9 -9 -9 -9 -8 -8 -8 -8 -7 -8 -7 -7 -7 -8 -7 -7 -7 -7 -8
-5 -5 -5 -5 -5 -6 -6 -6 -7 -7 -7 -7 -7 -7 -6 -6 -7 -8 -8 -7 -8 -7 -8 -8 -8 -9 -9 -8 -8 -9 -8 -8 -8 -8 -8 -8 -8 -7 -7 -8 -8 -8 -8
-4 -5 -5 -6 -6 -6 -6 -6 -6 -7 -7 -7 -7 -7 -7 -6 -6 -7 -8 -8 -7 -8 -7 -7 -8 -8 -8 -9 -9 -9 -9 -9 -9 -9 -8 -8 -8 -8 -8 -8 -8 -8 -8
-5 -5 -5 -6 -6 -6 -6 -7 -7 -7 -7 -7 -7 -7 -6 -6 -6 -6 -7 -8 -8 -8 -8 -7 -7 -8 -8 -8 -9 -9 -9 -9 -9 -9 -9 -9 -9 -9 -8 -9 -9 -8 -8
-5 -5 -6 -6 -6 -6 -7 -7 -7 -7 -7 -7 -7 -7 -7 -7 -7 -7 -6 -7 -7 -7 -7 -8 -8 -8 -8 -8 -9 -9 -9 -9 -9 -9 -9 -9 -9 -9 -10 -10 -9 -9 -9
-6 -6 -6 -6 -6 -6 -7 -7 -7 -6 -7 -7 -7 -7 -7 -7 -7 -7 -7 -7 -7 -7 -7 -8 -8 -8 -8 -9 -9 -9 -9 -9 -9 -9 -9 -9 -9 -9 -9 -10 -9 -9 -9
-7 -6 -6 -6 -6 -6 -7 -7 -6 -6 -6 -6 -6 -6 -6 -7 -8 -8 -7 -7 -6 -6 -7 -7 -8 -8 -8 -8 -9 -9 -9 -9 -9 -9 -9 -9 -9 -9 -9 -9 -10 -10 -9
-7 -7 -6 -6 -6 -6 -6 -7 -7 -6 -6 -6 -6 -6 -7 -7 -7 -8 -8 -7 -7 -7 -7 -7 -7 -8 -8 -8 -9 -8 -8 -8 -9 -9 -9 -9 -10 -10 -10 -10 -9 -10 -10
-7 -7 -6 -6 -6 -6 -6 -7 -7 -7 -6 -6 -6 -6 -7 -7 -7 -7 -8 -8 -7 -7 -7 -7 -7 -8 -8 -8 -8 -9 -8 -9 -9 -9 -9 -10 -10 -10 -10 -10 -10 -10 -10
-6 -6 -6 -6 -6 -6 -6 -6 -6 -6 -6 -6 -6 -6 -6 -7 -7 -8 -8 -8 -8 -8 -8 -8 -7 -8 -9 -8 -9 -9 -8 -9 -9 -10 -10 -11 -10 -10 -10 -10 -11 -10 -11
-5 -6 -6 -6 -7 -6 -6 -6 -6 -7 -7 -7 -6 -7 -6 -7 -7 -7 -8 -8 -8 -8 -8 -8 -8 -8 -8 -9 -9 -9 -9 -8 -8 -9 -9 -9 -11 -11 -10 -10 -10 -10 -10
-4 -5 -5 -6 -6 -6 -7 -7 -7 -6 -6 -7 -6 -6 -6 -7 -7 -7 -7 -8 -8 -8 -8 -8 -8 -8 -8 -8 -9 -10 -9 -8 -9 -9 -9 -9 -11 -10 -10 -10 -10 -10 -10
-4 -5 -5 -6 -6 -6 -6 -6 -6 -6 -6 -7 -7 -7 -7 -7 -7 -8 -8 -8 -8 -8 -8 -8 -8 -7 -8 -8 -9 -9 -9 -9 -9 -9 -9 -9 -9 -9 -9 -10 -10 -10 -10
-5 -5 -5 -5 -5 -6 -6 -6 -6 -6 -7 -7 -7 -7 -8 -8 -8 -8 -8 -7 -8 -8 -8 -7 -8 -8 -7 -8 -8 -8 -8 -9 -9 -9 -9 -9 -9 -9 -9 -9 -11 -11 -10
-5 -5 -5 -5 -5 -5 -6 -6 -6 -6 -7 -7 -7 -7 -7 -8 -8 -8 -8 -7 -7 -8 -8 -8 -8 -8 -7 -8 -7 -7 -7 -8 -7 -8 -8 -9 -8 -8 -10 -10 -10 -10 -10
-5 -5 -5 -6 -5 -5 -5 -5 -6 -6 -6 -7 -7 -7 -7 -7 -7 -7 -7 -7 -7 -7 -8 -8 -8 -8 -8 -8 -8 -8 -8 -8 -9 -8 -8 -8 -9 -10 -10 -10 -10 -10 -10
-6 -6 -5 -6 -6 -6 -6 -6 -7 -7 -7 -7 -7 -7 -7 -7 -7 -7 -7 -7 -7 -7 -7 -7 -7 -7 -8 -8 -9 -9 -9 -9 -9 -8 -9 -9 -10 -10 -9 -10 -10 -10 -10
-7 -7 -7 -6 -6 -7 -7 -7 -7 -7 -6 -7 -7 -8 -8 -7 -7 -7 -6 -6 -7 -6 -6 -6 -6 -6 -7 -8 -9 -9 -10 -8 -10 -9 -9 -9 -9 -9 -10 -10 -10 -10 -10
-8 -8 -8 -8 -8 -8 -8 -8 -8 -8 -8 -8 -9 -8 -8 -7 -7 -7 -6 -6 -7 -6 -6 -5 -6 -6 -4 -7 -10 -11 -10 -10 -9 -9 -10 -10 -11 -10 -10 -10 -10 -10 -10
-9 -9 -8 -8 -9 -9 -9 -9 -9 -9 -8 -8 -8 -8 -7 -7 -7 -8 -7 -7 -7 -6 -6 -4 -5 -7 -7 -4 -8 -9 -9 -10 -10 -10 -10 -10 -10 -11 -10 -10 -10 -10 -10
-9 -9 -9 -9 -9 -9 -9 -9 -8 -8 -8 -8 -7 -7 -7 -7 -7 -8 -8 -7 -6 -6 -5 -4 -7 -8 -7 -8 -8 -9 -9 -9 -10 -10 -10 -10 -10 -10 -11 -10 -10 -11 -11
-9 -9 -10 -9 -9 -9 -9 -8 -8 -7 -7 -7 -7 -7 -7 -8 -9 -9 -9 -8 -7 -6 -6 -7 -9 -9 -9 -9 -9 -10 -10 -10 -10 -11 -10 -10 -10 -10 -11 -10 -11 -11 -11
-10 -10 -10 -10 -9 -9 -10 -9 -9 -8 -7 -8 -8 -8 -9 -10 -10 -10 -9 -9 -8 -7 -7 -8 -9 -10 -10 -10 -10 -10 -10 -11 -10 -10 -10 -10 -10 -11 -10 -11 -11 -11 -11
-10 -10 -9 -10 -10 -10 -10 -9 -8 -8 -8 -9 -9 -9 -9 -9 -10 -10 -10 -9 -9 -8 -8 -8 -9 -10 -9 -10 -10 -10 -10 -10 -10 -10 -10 -10 -10 -10 -10 -11 -11 -11 -11
-11 -11 -11 -10 -9 -9 -9 -9 -9 -10 -10 -10 -10 -10 -10 -10 -10 -10 -10 -10 -10 -9 -9 -10 -10 -11 -11 -10 -10 -10 -10 -10 -10 -10 -11 -10 -11 -11 -11 -12 -11 -12 -12
Height
5906 5907 5910 5912 5913 5914 5916 5916 5917 5918 5920 5921 5922 5923 5924 5925 5926 5927 5928 5928 5928 5927 5927 5927 5926 5923 5921 5920 5920 5919 5916 5915 5914 5913 5911 5908 5905 5903 5900 5896 5893 5890 5888
5903 5905 5907 5908 5910 5912 5912 5913 5914 5914 5915 5916 5918 5919 5919 5920 5921 5923 5924 5925 5926 5925 5925 5926 5924 5922 5920 5918 5919 5917 5915 5914 5912 5910 5908 5906 5903 5901 5896 5893 5888 5886 5885
5901 5902 5904 5907 5908 5910 5910 5910 5910 5911 5912 5913 5913 5914 5915 5915 5915 5918 5920 5922 5922 5921 5922 5923 5923 5922 5920 5919 5918 5916 5913 5912 5910 5907 5906 5903 5900 5898 5895 5891 5887 5883 5880
5896 5899 5902 5904 5905 5906 5906 5907 5908 5909 5910 5910 5911 5911 5911 5913 5914 5915 5917 5919 5920 5920 5921 5921 5921 5920 5919 5917 5916 5914 5912 5910 5907 5904 5902 5899 5896 5893 5890 5886 5884 5881 5877
5891 5895 5898 5901 5902 5902 5903 5904 5905 5906 5907 5907 5909 5909 5910 5910 5910 5909 5910 5911 5914 5916 5917 5916 5915 5915 5914 5913 5912 5910 5909 5905 5903 5901 5898 5894 5891 5886 5882 5880 5877 5872 5868
5887 5891 5893 5895 5897 5899 5900 5901 5901 5902 5904 5905 5906 5907 5907 5907 5907 5907 5906 5906 5907 5907 5908 5908 5907 5907 5907 5906 5906 5905 5904 5901 5898 5895 5892 5890 5887 5883 5878 5874 5869 5866 5863
5884 5887 5889 5891 5893 5894 5895 5897 5899 5899 5900 5901 5903 5903 5903 5904 5904 5904 5903 5903 5903 5903 5902 5902 5901 5902 5904 5902 5901 5899 5898 5897 5893 5890 5886 5882 5880 5879 5874 5869 5865 5862 5857
5878 5882 5885 5886 5888 5890 5892 5894 5894 5895 5896 5897 5897 5898 5899 5901 5900 5900 5899 5899 5899 5898 5897 5897 5897 5897 5897 5896 5893 5891 5890 5889 5886 5882 5882 5879 5874 5870 5868 5863 5861 5856 5852
5873 5876 5878 5881 5882 5884 5885 5886 5886 5888 5890 5892 5893 5893 5894 5896 5896 5896 5893 5892 5892 5893 5893 5891 5890 5889 5889 5889 5886 5884 5883 5881 5878 5874 5873 5872 5868 5864 5859 5855 5854 5851 5845
5867 5869 5871 5873 5876 5878 5878 5879 5881 5882 5884 5885 5887 5888 5889 5890 5890 5890 5889 5885 5884 5886 5885 5885 5884 5882 5880 5880 5879 5876 5874 5874 5868 5866 5863 5861 5857 5854 5850 5848 5844 5840 5836
5855 5859 5863 5866 5868 5871 5871 5872 5873 5875 5876 5877 5878 5880 5881 5883 5883 5883 5882 5878 5878 5877 5876 5875 5875 5874 5871 5870 5871 5865 5863 5861 5857 5853 5850 5849 5842 5840 5839 5837 5835 5830 5828
5844 5849 5853 5856 5859 5861 5863 5865 5865 5866 5868 5869 5870 5870 5872 5874 5874 5873 5873 5870 5870 5865 5866 5865 5861 5862 5861 5860 5858 5856 5850 5846 5844 5840 5837 5835 5831 5825 5826 5826 5823 5822 5818
5836 5839 5843 5847 5849 5852 5854 5855 5857 5858 5859 5861 5861 5861 5862 5862 5862 5862 5862 5861 5858 5854 5854 5849 5849 5846 5847 5845 5842 5839 5835 5833 5829 5826 5824 5818 5814 5812 5807 5817 5813 5810 5807
5828 5831 5833 5836 5839 5842 5844 5846 5847 5848 5849 5850 5850 5850 5849 5848 5849 5849 5848 5847 5846 5843 5841 5836 5826 5828 5831 5835 5829 5821 5816 5819 5815 5811 5810 5807 5800 5798 5799 5801 5803 5801 5798
5819 5822 5824 5826 5829 5831 5832 5834 5836 5837 5837 5837 5838 5837 5836 5836 5836 5832 5831 5829 5833 5830 5825 5815 5812 5806 5806 5811 5811 5807 5796 5800 5797 5792 5792 5793 5790 5787 5785 5785 5791 5791 5788
5808 5811 5813 5816 5818 5819 5821 5822 5823 5824 5823 5824 5824 5822 5821 5821 5820 5819 5818 5815 5813 5812 5805 5800 5797 5794 5790 5789 5790 5788 5782 5778 5776 5776 5777 5780 5776 5774 5775 5776 5780 5779 5779
5797 5800 5802 5803 5805 5807 5809 5810 5810 5810 5811 5810 5809 5809 5808 5807 5804 5802 5800 5797 5796 5792 5784 5780 5779 5776 5773 5772 5773 5773 5764 5760 5763 5758 5768 5765 5762 5763 5766 5767 5769 5770 5769
5786 5788 5790 5791 5793 5794 5795 5796 5797 5797 5796 5795 5795 5794 5792 5790 5787 5785 5782 5777 5774 5774 5769 5761 5758 5754 5751 5750 5750 5755 5758 5760 5755 5752 5751 5753 5754 5758 5760 5760 5759 5759 5760
5772 5774 5776 5778 5779 5779 5780 5781 5782 5781 5780 5780 5778 5776 5774 5772 5770 5769 5766 5759 5755 5753 5750 5741 5733 5726 5723 5722 5725 5733 5740 5741 5740 5733 5741 5744 5742 5747 5749 5752 5750 5749 5749
5757 5760 5761 5762 5764 5764 5765 5764 5765 5765 5764 5763 5761 5760 5759 5757 5754 5751 5749 5743 5736 5735 5730 5722 5707 5690 5689 5679 5689 5704 5715 5717 5726 5725 5731 5730 5731 5735 5739 5742 5742 5739 5737
5744 5747 5748 5749 5749 5750 5752 5751 5750 5748 5747 5747 5747 5744 5741 5738 5736 5732 5729 5727 5723 5716 5709 5702 5686 5677 5667 5660 5653 5681 5692 5705 5709 5715 5716 5718 5720 5726 5729 5729 5730 5729 5730
5729 5731 5733 5734 5735 5736 5736 5737 5736 5735 5734 5732 5729 5726 5723 5721 5719 5718 5715 5711 5706 5699 5693 5682 5675 5674 5676 5666 5675 5679 5683 5694 5699 5701 5705 5709 5712 5713 5716 5719 5720 5721 5719
5717 5719 5718 5719 5721 5722 5722 5721 5721 5720 5718 5716 5714 5712 5710 5706 5706 5706 5700 5697 5695 5689 5683 5673 5670 5669 5669 5670 5672 5675 5679 5683 5686 5689 5698 5701 5703 5704 5707 5710 5710 5712 5712
5700 5701 5701 5703 5703 5704 5705 5704 5703 5703 5702 5700 5698 5697 5697 5694 5693 5693 5691 5690 5687 5688 5680 5673 5669 5667 5666 5667 5669 5671 5674 5675 5679 5686 5690 5691 5692 5696 5698 5699 5700 5702 5702
5685 5683 5681 5679 5683 5686 5689 5688 5688 5688 5686 5683 5683 5684 5684 5682 5681 5681 5681 5681 5678 5679 5675 5672 5670 5669 5669 5669 5669 5669 5672 5673 5676 5678 5680 5681 5683 5686 5687 5687 5690 5692 5692
5668 5669 5668 5669 5672 5673 5672 5671 5672 5672 5670 5670 5669 5670 5670 5668 5667 5668 5668 5668 5667 5668 5665 5663 5662 5661 5661 5662 5662 5664 5665 5665 5665 5667 5668 5670 5672 5675 5677 5680 5681 5682 5682
Wind_Speed
20 20 20 19 18 19 18 20 22 22 19 16 16 15 15 15 15 14 12 13 11 8 7 8 11 16 14 13 10 7 7 7 8 12 15 19 20 20 23 26 28 29 29
23 22 18 18 15 13 14 14 15 17 18 18 17 18 18 19 19 16 16 15 16 14 11 8 10 10 8 6 7 9 11 9 13 18 17 19 22 24 27 28 32 34 31
23 21 19 16 15 14 14 15 14 13 13 13 11 11 14 17 19 19 19 17 18 18 14 8 8 11 9 8 10 13 14 14 16 19 21 25 26 27 29 31 33 35 33
23 25 21 17 15 16 17 17 15 13 13 10 7 7 9 12 15 17 18 18 19 20 18 15 12 12 11 12 12 13 14 16 18 23 22 25 26 29 35 39 38 36 32
24 24 21 19 19 19 19 20 17 12 12 10 6 7 9 9 8 9 13 15 17 22 19 19 18 18 17 16 15 16 18 22 25 25 27 29 31 34 37 41 41 39 34
24 21 23 21 21 20 22 23 22 17 13 13 9 7 7 9 9 11 13 14 17 22 23 23 27 27 24 25 21 21 23 23 28 30 30 32 34 36 41 41 40 38 37
28 21 21 22 20 20 23 24 23 20 18 16 15 13 10 10 13 14 15 16 18 23 25 28 27 27 24 28 26 27 27 26 29 32 34 36 37 38 44 43 38 37 39
33 28 24 24 22 22 22 26 26 24 21 19 18 18 20 15 17 20 20 20 20 22 27 31 31 30 26 30 35 33 32 33 36 38 37 40 44 44 43 47 44 40 41
36 33 33 30 27 24 20 26 25 29 24 24 24 23 24 22 22 25 29 31 30 24 24 29 30 34 33 29 36 35 36 37 42 46 46 45 50 48 47 48 47 46 43
40 42 38 38 34 29 23 24 25 29 31 31 30 31 31 30 29 29 34 38 38 35 34 33 30 33 36 35 37 43 44 45 49 50 52 53 51 53 47 46 48 46 44
45 46 46 45 42 35 32 30 29 28 30 30 32 32 32 31 29 33 35 39 39 41 42 40 38 41 44 46 44 49 54 55 58 60 56 57 61 49 46 46 46 47 49
40 41 38 36 40 39 36 35 33 32 34 35 36 37 36 34 34 35 37 40 40 42 45 43 48 47 50 50 50 53 58 54 52 59 58 59 65 72 52 46 44 49 43
32 32 34 35 37 37 35 34 38 39 38 38 41 41 41 41 42 42 40 45 50 51 52 54 57 52 53 42 47 54 57 56 58 60 61 68 71 71 57 43 42 43 40
36 35 35 36 36 38 38 41 43 43 42 41 44 45 44 45 44 42 44 48 53 57 55 61 67 68 56 62 54 55 55 59 63 66 65 69 79 72 55 39 40 40 37
37 36 38 39 41 41 43 43 44 45 47 46 47 49 49 50 48 52 54 54 54 60 63 65 68 76 70 71 62 71 62 66 72 72 70 68 71 71 43 37 36 37 35
39 39 39 41 43 44 46 48 48 48 49 50 52 51 53 55 60 60 59 61 61 64 73 78 79 81 81 78 66 69 70 71 63 77 68 54 49 42 37 33 36 39 36
40 39 40 42 43 45 47 49 51 52 52 52 54 55 59 60 62 63 62 67 67 71 78 81 77 86 88 87 83 80 80 62 76 59 52 45 42 31 32 34 39 39 36
41 42 43 43 45 45 46 47 49 50 52 55 58 59 60 61 62 65 68 70 70 70 71 75 77 81 85 87 90 81 75 69 78 59 47 36 30 34 35 38 41 36 36
48 48 47 47 49 50 50 51 52 55 58 60 62 64 65 67 67 66 69 72 73 72 72 77 79 87 89 86 88 85 73 69 78 42 55 54 40 39 40 44 40 32 32
52 52 53 53 53 52 52 53 54 55 61 62 60 60 62 64 66 68 70 75 76 74 72 73 70 76 91 93 93 79 71 83 71 54 56 42 37 37 41 41 35 32 30
56 54 55 56 55 55 52 53 55 58 63 65 62 61 65 68 64 60 59 62 62 60 64 73 65 58 56 68 58 67 73 71 67 59 48 37 32 34 37 38 35 33 29
54 54 54 56 57 57 56 54 56 57 56 59 61 62 62 65 65 52 46 54 52 56 59 56 28 27 33 34 41 47 49 59 57 48 35 30 28 36 40 38 34 31 31
53 55 56 56 57 55 53 57 59 60 58 59 63 64 66 60 52 40 40 40 43 47 51 35 24 22 23 32 34 38 43 43 42 26 29 32 35 37 37 35 33 31 31
57 64 67 70 63 59 59 59 59 59 58 59 58 55 48 40 38 39 37 32 31 37 24 15 12 9 12 12 14 20 23 22 27 27 31 32 34 36 35 33 32 34 32
59 50 44 44 58 57 58 53 53 57 57 54 53 51 48 39 38 40 41 40 33 34 28 26 22 17 21 19 16 18 23 28 27 33 36 33 34 34 32 34 34 35 32
47 44 43 42 45 47 47 47 49 51 46 46 45 45 42 40 38 39 38 40 36 30 30 30 28 27 28 27 31 30 35 34 34 34 36 37 36 36 33 35 35 32 31
Wind_Direction
223 234 242 252 256 260 264 264 266 269 268 263 265 271 279 281 279 270 271 256 250 245 275 318 334 321 307 302 293 307 305 305 296 311 313 309 317 321 318 317 315 313 315
229 239 241 244 256 272 271 268 269 270 275 275 272 273 273 274 274 268 264 254 250 246 259 298 327 357 313 284 272 304 299 299 302 308 310 306 310 314 314 314 313 312 313
238 232 237 252 267 276 275 271 268 271 275 279 277 278 274 267 265 263 260 260 247 249 248 270 292 312 279 268 273 296 299 301 304 302 308 314 316 314 312 314 316 316 313
238 235 240 248 268 276 271 268 268 268 266 268 274 298 313 307 299 284 276 273 259 257 260 269 263 292 296 299 286 291 295 299 303 308 316 316 317 319 318 317 313 312 309
241 240 251 253 257 269 273 268 269 252 253 246 266 295 309 319 317 299 282 263 258 254 263 258 267 269 276 276 298 298 301 313 308 302 307 314 314 318 322 323 314 310 310
246 252 261 266 255 264 271 264 261 257 247 250 246 266 299 321 316 301 279 270 249 245 246 253 258 260 269 272 280 286 297 306 304 307 303 306 309 313 318 324 325 316 313
251 256 259 260 262 269 267 265 265 265 249 248 261 272 282 305 306 304 297 286 268 253 251 253 262 267 269 284 288 285 292 296 297 300 303 301 305 307 311 315 324 317 313
249 255 256 258 262 262 277 271 269 263 262 260 262 275 276 283 291 296 296 295 292 281 264 260 267 272 272 277 280 281 281 286 290 292 296 299 301 304 305 308 316 318 313
245 252 257 261 254 258 276 280 270 256 265 266 264 271 277 280 282 285 288 297 303 287 279 274 276 274 275 270 274 276 277 283 288 291 293 295 297 298 299 303 306 310 310
245 250 254 258 258 254 265 271 272 263 264 268 274 277 279 281 281 290 284 285 295 302 292 285 278 277 274 275 272 276 280 284 285 285 287 291 291 288 297 302 300 302 304
241 246 250 253 256 251 255 260 265 264 264 274 275 274 278 283 284 280 279 287 291 292 292 292 284 284 281 282 283 281 286 281 281 281 283 282 298 294 296 293 296 295 300
241 240 243 251 248 250 253 257 264 261 265 273 273 276 279 277 277 280 281 286 284 288 290 284 283 280 279 282 283 282 286 291 292 293 291 287 283 288 295 287 291 290 293
236 230 235 241 245 249 251 254 256 258 264 266 269 274 275 273 269 274 276 281 284 286 288 289 282 276 273 279 274 274 282 290 291 289 291 288 285 286 297 280 278 284 290
247 245 240 239 243 247 253 254 257 263 266 264 266 267 268 271 273 275 278 278 280 282 287 289 285 283 277 278 271 270 273 282 285 285 286 292 290 294 294 274 272 277 285
248 247 250 251 251 251 253 256 257 259 263 264 264 265 268 276 276 278 283 283 283 281 280 271 277 282 286 283 279 288 263 274 278 276 274 285 292 285 273 252 264 276 282
247 246 247 250 253 254 255 256 259 260 263 263 269 271 272 275 276 278 279 281 282 279 276 277 277 281 278 289 282 286 285 295 279 291 281 294 301 284 254 254 265 279 281
246 245 247 249 251 252 254 257 259 261 264 266 267 268 270 272 274 276 276 276 276 277 276 278 280 278 278 279 279 281 277 273 286 292 286 301 287 257 262 265 268 276 278
245 247 248 248 251 253 256 258 260 263 264 265 267 267 267 269 272 274 275 277 278 278 281 284 281 277 273 272 272 271 270 272 279 276 290 295 272 272 274 275 274 269 272
243 243 245 247 249 248 250 253 256 259 261 264 266 267 268 269 271 275 277 280 281 284 287 287 285 279 272 265 261 262 262 265 272 276 279 291 292 264 276 276 266 264 268
239 240 242 241 243 248 250 253 256 263 265 265 270 272 274 277 281 280 279 279 286 289 290 293 287 295 277 271 250 249 251 258 266 276 282 294 256 260 271 267 265 267 272
240 243 243 246 249 254 257 261 262 264 267 271 275 276 278 280 284 287 289 290 289 292 293 292 296 278 248 229 228 237 247 256 261 271 282 275 245 255 260 267 266 269 272
240 243 246 250 252 256 258 261 263 264 268 270 271 275 281 286 291 292 290 292 299 304 299 296 296 235 239 259 255 254 249 253 260 264 267 247 259 267 271 264 267 269 269
244 250 252 255 258 261 265 262 261 264 270 273 276 280 284 286 287 285 293 297 301 302 299 300 274 268 276 254 238 246 259 263 269 230 243 253 263 273 266 266 267 268 271
251 254 255 259 258 258 265 266 263 266 272 277 277 279 282 283 280 280 285 283 286 287 284 317 324 295 248 250 266 266 273 271 237 242 249 261 264 262 263 267 265 265 266
261 263 255 261 244 252 263 264 267 269 272 273 273 276 275 270 267 268 274 276 283 276 278 279 285 271 266 261 253 253 254 261 253 245 253 266 259 259 262 264 263 265 267
253 248 252 251 253 256 259 262 265 270 272 272 272 270 269 271 271 269 273 275 272 274 280 276 271 262 256 258 249 255 263 270 268 270 274 272 257 257 260 261 262 263 263